Location: Crab Orchard
(37.7292°N, 88.8042°W)
Time: 21:00:56
(UTC+00:00)

Cosmos 1869 Rocket - Pass Details

Date: 08 December 2019
Orbit: 606 x 633 km, 82.5° (Epoch: 22 January)

Event Time Altitude Azimuth Distance (km) Brightness Sun altitude
Rises 12:03:23 0° 207° (SSW) 2,847 6.9 -10.6°
Reaches altitude 10° 12:05:44 10° 216° (SW) 1,948 6.0 -10.2°
Maximum altitude 12:09:40 34° 282° (WNW) 1,001 4.1 -9.5°
Drops below altitude 10° 12:13:38 10° 348° (NNW) 1,965 5.8 -8.7°
Sets 12:16:02 0° 358° (N) 2,876 6.7 -8.3°
